Regional Weather Roundup
Issued by NWS

Home | Current Version | Previous Version | Graphics & Text | Print | Product List | Glossary On
Versions: 1 2 3 4 5 6 7 8 9 10 11 12 13 14 15 16 17 18 19 20 21 22 23 24 25 26 27 28 29 30 31 32 33 34 35 36 37 38 39 40 41 42 43 44 45 46 47 48 49 50
765
ASUS43 KMKX 250010
RWRWI

WISCONSIN REGIONAL WEATHER ROUNDUP
NATIONAL WEATHER SERVICE MILWAUKEE/SULLIVAN WI
600 PM CST TUE JAN 24 2017

NOTE: "FAIR" INDICATES FEW OR NO CLOUDS BELOW 12,000 FEET WITH NO
SIGNIFICANT WEATHER AND/OR OBSTRUCTIONS TO VISIBILITY.

WIZ001-002-006>008-014>016-023>028-250100-
NORTHWEST WISCONSIN

CITY           SKY/WX    TMP DP  RH WIND       PRES   REMARKS
SUPERIOR ARPT  CLOUDY    32  26  78 CALM      29.84F
6HR MIN TEMP:  32; 6HR MAX TEMP:  34;

ASHLAND        CLOUDY    33  26  75 NE6       29.85F WCI  28
6HR MIN TEMP:  33; 6HR MAX TEMP:  34;

HAYWARD        CLOUDY    32  26  78 N5        29.82S WCI  27
6HR MIN TEMP:  32; 6HR MAX TEMP:  33;

SIREN          CLOUDY    32  27  83 NE5       29.83S WCI  27
6HR MIN TEMP:  32; 6HR MAX TEMP:  32;

CUMBERLAND     CLOUDY    32  27  80 NE6       29.80F WCI  26
RICE LAKE      CLOUDY    32  30  90 NE3       29.82S
6HR MIN TEMP:  32; 6HR MAX TEMP:  33;

CHETEK         CLOUDY    33  28  83 CALM      29.80F
6HR MIN TEMP:  33; 6HR MAX TEMP:  33;

LADYSMITH      CLOUDY    33  32  96 CALM      29.81F
6HR MIN TEMP:  33; 6HR MAX TEMP:  34;

EAU CLAIRE     CLOUDY    33  29  85 NE6       29.79F WCI  28
6HR MIN TEMP:  33; 6HR MAX TEMP:  34;

MENOMONIE        N/A    N/A N/A N/A MISG        N/A
NEW RICHMOND   CLOUDY    32  29  88 NE6       29.79F WCI  26
6HR MIN TEMP:  32; 6HR MAX TEMP:  33;

OSCEOLA        CLOUDY    32  28  85 NE7       29.82F WCI  26
6HR MIN TEMP:  32; 6HR MAX TEMP:  33;

$$

WIZ003>005-009-010-017-018-250100-
NORTH CENTRAL WISCONSIN

CITY           SKY/WX    TMP DP  RH WIND       PRES   REMARKS
MANITOWISH WTR LGT SNOW  32  32 100 CALM      29.80S
6HR MIN TEMP:  32; 6HR MAX TEMP:  33;

ARBOR VITAE    CLOUDY    37  34  90 CALM      29.80R
6HR MIN TEMP:  35; 6HR MAX TEMP:  37;

WOODRUFF       CLOUDY    37  34  90 CALM      29.80R
6HR MIN TEMP:  35; 6HR MAX TEMP:  37;

RHINELANDER    CLOUDY    35  31  85 CALM      29.80S
6HR MIN TEMP:  35; 6HR MAX TEMP:  37;

EAGLE RIVER    CLOUDY    33  32  98 CALM      29.80R
6HR MIN TEMP:  33; 6HR MAX TEMP:  35;

LAND O LAKES   LGT SNOW  33  33  99 CALM      29.81S
6HR MIN TEMP:  33; 6HR MAX TEMP:  35;

PHILLIPS       CLOUDY    32  29  90 CALM      29.80R
6HR MIN TEMP:  32; 6HR MAX TEMP:  33;

TOMAHAWK       CLOUDY    33  29  86 CALM      29.80S
6HR MIN TEMP:  33; 6HR MAX TEMP:  35;

MEDFORD        CLOUDY    32  29  90 NE5       29.78F WCI  27
6HR MIN TEMP:  32; 6HR MAX TEMP:  33;

MERRILL        CLOUDY    35  31  85 CALM        N/A
6HR MIN TEMP:  34; 6HR MAX TEMP:  36;

$$

WIZ029-030-035-036-043>047-250100-
CENTRAL WISCONSIN

CITY           SKY/WX    TMP DP  RH WIND       PRES   REMARKS
WAUSAU         CLOUDY    35  29  78 E3        29.79S
6HR MIN TEMP:  34; 6HR MAX TEMP:  36;

MOSINEE        CLOUDY    34  30  86 E3        29.81R
MARSHFIELD     CLOUDY    33  28  81 E6        29.78F WCI  28
6HR MIN TEMP:  33; 6HR MAX TEMP:  35;

STEVENS POINT  CLOUDY    32  30  90 E6        29.81S WCI  27
6HR MIN TEMP:  32; 6HR MAX TEMP:  34;

WAUPACA        CLOUDY    37  32  83 CALM      29.82F
6HR MIN TEMP:  37; 6HR MAX TEMP:  39;

WAUTOMA        CLOUDY    34  30  85 CALM      29.81F
6HR MIN TEMP:  34; 6HR MAX TEMP:  38;

WISC RAPIDS    CLOUDY    35  29  78 NE7       29.80F WCI  29
6HR MIN TEMP:  35; 6HR MAX TEMP:  37;

CAMP DOUGLAS   CLOUDY    34  32  93 E3        29.78F
$$

WIZ011>013-019>022-031-037>040-048>050-250100-
NORTHEAST WISCONSIN

CITY           SKY/WX    TMP DP  RH WIND       PRES   REMARKS
ANTIGO         CLOUDY    33  31  94 NE5       29.80F WCI  29
6HR MIN TEMP:  33; 6HR MAX TEMP:  35;

SHAWANO        CLOUDY    39  33  77 CALM      29.82S
6HR MIN TEMP:  39; 6HR MAX TEMP:  41;

OCONTO         CLOUDY    35  33  94 CALM      29.83R
6HR MIN TEMP:  34; 6HR MAX TEMP:  39;

STURGEON BAY   CLOUDY    35  35 100 CALM      29.83R
6HR MIN TEMP:  35; 6HR MAX TEMP:  37;

GREEN BAY      CLOUDY    39  34  82 CALM      29.83R
6HR MIN TEMP:  38; 6HR MAX TEMP:  44;

MANITOWOC      CLOUDY    38  34  85 MISG      29.83S
6HR MIN TEMP:  37; 6HR MAX TEMP:  40;

APPLETON       CLOUDY    36  34  93 VRB3      29.80S
CLINTONVILLE   CLOUDY    36  32  87 CALM      29.82S
OSHKOSH        CLOUDY    36  31  82 E3        29.81F
6HR MIN TEMP:  35; 6HR MAX TEMP:  38;

$$

WIZ032>034-041-042-053>061-250100-
SOUTHWEST WISCONSIN

CITY           SKY/WX    TMP DP  RH WIND       PRES   REMARKS
LA CROSSE      CLOUDY    37  31  78 E7        29.77F WCI  32
6HR MIN TEMP:  37; 6HR MAX TEMP:  38;

SPARTA         CLOUDY    34  31  90 E3        29.78F
6HR MIN TEMP:  33; 6HR MAX TEMP:  35;

VIROQUA        CLOUDY    33  32  96 E7        29.75F WCI  27
6HR MIN TEMP:  33; 6HR MAX TEMP:  34;

BOSCOBEL       CLOUDY    37  31  78 E3        29.75F
6HR MIN TEMP:  37; 6HR MAX TEMP:  38;

PRAIRIE DU CHI CLOUDY    35  31  87 NE7       29.73F WCI  29
6HR MIN TEMP:  34; 6HR MAX TEMP:  35;

PLATTEVILLE    CLOUDY    34  34 100 E13       29.74S WCI  25
6HR MIN TEMP:  34; 6HR MAX TEMP:  35;

$$

WIZ056-057-062-063-064-067-068-250100-
SOUTH CENTRAL WISCONSIN

CITY           SKY/WX    TMP DP  RH WIND       PRES   REMARKS
REEDSBURG      CLOUDY    34  32  92 CALM      29.77S
6HR MIN TEMP:  34; 6HR MAX TEMP:  36;

BARABOO/DELLS  CLOUDY    34  31  87 E3        29.77S
6HR MIN TEMP:  34; 6HR MAX TEMP:  36;

LONE ROCK      CLOUDY    36  31  82 E9        29.76F WCI  29
6HR MIN TEMP:  35; 6HR MAX TEMP:  38;

MINERAL POINT  CLOUDY    34  34 100 E10       29.73F WCI  26
MADISON        CLOUDY    35  31  85 E6        29.79F WCI  30
6HR MIN TEMP:  35; 6HR MAX TEMP:  37;

MIDDLETON      CLOUDY    36  33  88 E7        29.78F WCI  31
6HR MIN TEMP:  36; 6HR MAX TEMP:  38;

WATERTOWN      CLOUDY    34  34  98 NE5       29.80S WCI  30
6HR MIN TEMP:  34; 6HR MAX TEMP:  37;

MONROE         CLOUDY    32  32 100 E5        29.75F WCI  27
JANESVILLE     CLOUDY    36  34  93 E7        29.77F WCI  30
$$

WIZ051-052-058>065-066-070>072-250100-
SOUTHEAST WISCONSIN

CITY           SKY/WX    TMP DP  RH WIND       PRES   REMARKS
MILWAUKEE      CLOUDY    37  32  82 SE5       29.81F WCI  33
6HR MIN TEMP:  37; 6HR MAX TEMP:  39;

WAUKESHA       CLOUDY    34  30  86 E6        29.81F WCI  29
MILWAUKEE/TIMM CLOUDY    36  30  80 NE3       29.82F
RACINE         CLOUDY    36  31  82 SE6       29.84S WCI  31
6HR MIN TEMP:  36; 6HR MAX TEMP:  38;

KENOSHA        CLOUDY    36  32  85 E7        29.82R WCI  30
6HR MIN TEMP:  36; 6HR MAX TEMP:  37;

FOND DU LAC    CLOUDY    36  30  79 NE7       29.81F WCI  30
6HR MIN TEMP:  36; 6HR MAX TEMP:  39; 6HR PCP: TRACE;

SHEBOYGAN      CLOUDY    36  32  85 CALM      29.82F
6HR MIN TEMP:  36; 6HR MAX TEMP:  39;

WEST BEND      CLOUDY    36  34  93 E5        29.81F WCI  32
JUNEAU         CLOUDY    33  32  93 NE5       29.80F WCI  29
6HR MIN TEMP:  33; 6HR MAX TEMP:  36;

$$

LSZ147-162-250100-
LAKE SUPERIOR

STATION/POSITION TIME  TEMP    WIND        PRES    WAVE
                       AIR SEA DIR/SP/G            HT/PER
                 (UTC) (F)     (DEG/KT/KT) (MB)    (FT/S)
DEVILS ISLAND    2300   34     250/  9/ 12 1011.7R
PORT WING        2330   33      CALM  /  2 1011.2F
SAXON HARBOR     2330   33     220/  3/  4 1011.2R
$$

LMZ867-665-643>646-250100-
LAKE MICHIGAN

STATION/POSITION TIME  TEMP    WIND        PRES    WAVE
                       AIR SEA DIR/SP/G            HT/PER
                 (UTC) (F)     (DEG/KT/KT) (MB)    (FT/S)
CHAMBERS ISLAND  2340   35        CALM     1009.5S
NORTHPORT PIER   2340   36     300/  4/  5 1009.5F
SISTER BAY       2320   34        CALM       N/A
KEWAUNEE LAKESHO 2348   36      C



USA.gov is the U.S. government's official web portal to all federal, state and local government web resources and services.